GFSSE_prec_pwat_057.txt.gz
Precipitable_Water
1.53 1.68 1.74 1.72 1.64 1.54 1.48 1.43 1.42 1.42 1.39 1.33 1.25 1.10 0.93 0.84 0.75 0.67 0.60 0.59 0.63 0.67 0.70 0.71 0.69 0.74 0.79 0.82 0.85 0.91 1.04 1.07 1.08 1.13 1.19 1.14 1.03 0.98 0.92 0.92 0.92 0.99 1.02
1.62 1.70 1.72 1.69 1.62 1.55 1.49 1.42 1.45 1.47 1.41 1.29 1.11 0.90 0.78 0.70 0.62 0.61 0.65 0.70 0.72 0.72 0.72 0.73 0.72 0.79 0.84 0.87 0.88 0.92 1.03 1.06 1.02 0.96 0.92 0.89 0.89 0.87 0.82 0.81 0.81 0.81 0.82
1.58 1.76 1.75 1.71 1.67 1.60 1.50 1.43 1.44 1.48 1.38 1.19 0.98 0.82 0.69 0.65 0.63 0.68 0.71 0.74 0.74 0.71 0.71 0.74 0.76 0.82 0.90 0.94 0.96 0.96 1.02 1.02 0.91 0.86 0.82 0.83 0.80 0.76 0.74 0.75 0.79 0.81 0.81
1.66 1.79 1.77 1.76 1.72 1.63 1.51 1.48 1.53 1.50 1.35 1.07 0.92 0.73 0.69 0.65 0.69 0.73 0.74 0.75 0.72 0.71 0.71 0.74 0.78 0.81 0.88 0.90 0.93 0.97 0.97 0.85 0.78 0.82 0.83 0.84 0.85 0.83 0.75 0.73 0.70 0.69 0.72
1.64 1.74 1.77 1.75 1.71 1.63 1.58 1.57 1.54 1.51 1.22 1.01 0.83 0.72 0.73 0.71 0.72 0.76 0.75 0.72 0.72 0.73 0.73 0.78 0.78 0.79 0.79 0.82 0.83 0.83 0.79 0.81 0.86 0.89 0.90 0.91 0.91 0.91 0.85 0.81 0.77 0.77 0.78
1.69 1.74 1.75 1.72 1.73 1.54 1.63 1.59 1.54 1.34 1.08 0.93 0.80 0.74 0.76 0.76 0.79 0.76 0.72 0.72 0.73 0.75 0.74 0.77 0.81 0.80 0.82 0.84 0.84 0.80 0.80 0.84 0.86 0.86 0.86 0.89 0.89 0.91 0.86 0.85 0.82 0.80 0.81
1.65 1.73 1.74 1.78 1.75 1.68 1.66 1.63 1.39 1.16 1.03 0.88 0.80 0.78 0.80 0.81 0.77 0.73 0.69 0.72 0.74 0.75 0.77 0.79 0.76 0.79 0.79 0.82 0.85 0.86 0.86 0.85 0.82 0.81 0.83 0.84 0.87 0.88 0.85 0.83 0.83 0.82 0.81
1.68 1.73 1.77 1.80 1.72 1.69 1.71 1.53 1.26 1.15 0.94 0.80 0.78 0.79 0.80 0.80 0.75 0.70 0.71 0.75 0.76 0.78 0.79 0.80 0.80 0.85 0.89 0.89 0.88 0.91 0.91 0.87 0.83 0.80 0.83 0.85 0.85 0.86 0.85 0.82 0.80 0.77 0.76
1.75 1.77 1.77 1.73 1.76 1.70 1.55 1.34 1.16 0.92 0.80 0.72 0.73 0.79 0.79 0.76 0.71 0.72 0.74 0.76 0.79 0.83 0.83 0.83 0.91 0.96 0.96 0.97 0.96 0.94 0.91 0.87 0.81 0.81 0.82 0.85 0.87 0.87 0.83 0.78 0.74 0.71 0.68
1.66 1.69 1.68 1.68 1.64 1.56 1.42 1.20 0.90 0.77 0.76 0.78 0.77 0.77 0.75 0.75 0.75 0.75 0.77 0.81 0.86 0.89 0.90 0.98 1.04 1.04 1.04 1.02 1.00 0.95 0.88 0.84 0.79 0.78 0.78 0.82 0.85 0.84 0.79 0.75 0.72 0.67 0.63
1.57 1.57 1.58 1.50 1.43 1.46 1.33 1.02 0.83 0.76 0.72 0.75 0.78 0.77 0.79 0.79 0.78 0.80 0.83 0.85 0.94 1.00 1.07 1.13 1.11 1.08 1.06 1.04 0.99 0.90 0.84 0.81 0.76 0.74 0.72 0.75 0.76 0.78 0.75 0.71 0.68 0.63 0.58
1.43 1.44 1.44 1.42 1.31 1.37 1.15 0.97 0.82 0.76 0.76 0.79 0.81 0.85 0.87 0.91 0.94 0.91 0.95 1.00 1.07 1.13 1.17 1.15 1.10 1.07 1.04 0.98 0.89 0.79 0.73 0.68 0.64 0.67 0.70 0.71 0.70 0.75 0.72 0.68 0.62 0.58 0.53
1.40 1.47 1.38 1.31 1.36 1.34 1.09 0.93 0.84 0.79 0.79 0.82 0.94 0.97 1.00 1.02 1.04 1.04 1.05 1.09 1.15 1.18 1.14 1.11 1.07 1.03 0.99 0.93 0.85 0.75 0.65 0.58 0.54 0.53 0.61 0.63 0.62 0.64 0.66 0.64 0.61 0.59 0.56
1.24 1.22 1.24 1.30 1.25 1.14 0.95 0.79 0.75 0.73 0.82 0.90 0.97 1.03 1.02 1.04 1.09 1.09 1.14 1.15 1.12 1.13 1.09 1.04 0.99 0.96 0.88 0.82 0.73 0.60 0.52 0.50 0.48 0.47 0.48 0.54 0.55 0.57 0.63 0.61 0.60 0.62 0.58
1.11 1.18 1.19 1.18 1.15 1.00 0.80 0.75 0.73 0.79 0.90 0.98 1.04 1.11 1.13 1.07 1.11 1.17 1.12 1.11 1.07 1.06 1.01 0.97 0.93 0.87 0.77 0.64 0.54 0.50 0.44 0.43 0.41 0.41 0.42 0.43 0.46 0.54 0.60 0.62 0.61 0.62 0.61
1.17 1.19 1.13 1.02 0.98 0.80 0.69 0.70 0.74 0.89 0.98 1.12 1.19 1.18 1.17 1.17 1.15 1.12 1.08 1.05 1.01 0.99 0.94 0.92 0.88 0.74 0.57 0.49 0.44 0.42 0.41 0.41 0.40 0.39 0.39 0.39 0.45 0.57 0.61 0.60 0.60 0.59 0.61
1.04 1.03 0.98 0.97 0.89 0.78 0.81 0.86 0.94 1.01 1.10 1.12 1.15 1.20 1.23 1.18 1.11 1.08 1.06 0.99 0.97 0.94 0.90 0.86 0.70 0.57 0.50 0.46 0.42 0.43 0.41 0.41 0.41 0.40 0.42 0.46 0.55 0.57 0.59 0.55 0.54 0.54 0.53
1.00 1.03 1.10 1.02 1.00 0.94 0.98 1.08 1.10 1.22 1.19 1.20 1.24 1.25 1.18 1.12 1.09 1.05 0.98 0.93 0.92 0.89 0.79 0.61 0.57 0.52 0.49 0.47 0.46 0.44 0.42 0.41 0.41 0.42 0.42 0.44 0.48 0.51 0.52 0.51 0.51 0.52 0.53
0.98 1.02 1.04 1.04 0.99 1.05 1.11 1.15 1.20 1.22 1.21 1.23 1.21 1.13 1.08 1.05 1.03 0.98 0.94 0.88 0.79 0.64 0.61 0.60 0.58 0.53 0.49 0.48 0.47 0.47 0.42 0.43 0.44 0.43 0.42 0.42 0.43 0.44 0.45 0.45 0.46 0.49 0.49
1.02 1.05 1.04 1.04 1.04 1.11 1.13 1.18 1.22 1.22 1.21 1.19 1.10 1.02 0.98 0.98 0.92 0.86 0.77 0.66 0.64 0.62 0.62 0.61 0.57 0.56 0.52 0.48 0.45 0.41 0.40 0.43 0.44 0.41 0.42 0.42 0.41 0.42 0.43 0.44 0.44 0.43 0.44
1.05 1.06 0.99 0.97 1.05 1.09 1.09 1.08 1.08 1.06 1.07 1.04 1.02 1.00 0.96 0.89 0.81 0.71 0.66 0.64 0.63 0.63 0.63 0.61 0.58 0.54 0.51 0.51 0.44 0.37 0.39 0.44 0.41 0.43 0.42 0.39 0.39 0.39 0.40 0.41 0.40 0.39 0.38
0.98 1.03 0.98 0.94 0.98 1.05 1.11 1.09 1.09 1.04 1.04 1.02 1.01 0.96 0.89 0.82 0.75 0.68 0.64 0.64 0.66 0.63 0.60 0.60 0.59 0.55 0.52 0.52 0.43 0.37 0.31 0.36 0.42 0.43 0.43 0.43 0.42 0.44 0.42 0.41 0.41 0.39 0.38
0.87 0.91 0.93 0.97 1.01 1.09 1.15 1.13 1.08 1.04 1.04 0.98 0.91 0.85 0.81 0.78 0.73 0.67 0.68 0.69 0.67 0.66 0.64 0.67 0.65 0.58 0.51 0.54 0.50 0.40 0.31 0.29 0.34 0.39 0.41 0.44 0.45 0.42 0.42 0.42 0.41 0.39 0.36
0.87 0.97 0.99 1.03 1.12 1.18 1.21 1.13 1.00 0.96 0.94 0.92 0.85 0.83 0.81 0.75 0.70 0.72 0.74 0.74 0.72 0.71 0.68 0.68 0.65 0.60 0.57 0.49 0.50 0.45 0.41 0.39 0.33 0.32 0.42 0.45 0.44 0.39 0.41 0.41 0.41 0.39 0.38
1.00 1.01 1.08 1.15 1.17 1.23 1.20 1.14 1.03 1.00 1.01 0.88 0.84 0.81 0.75 0.74 0.77 0.79 0.79 0.78 0.77 0.77 0.70 0.65 0.64 0.61 0.59 0.55 0.41 0.35 0.36 0.38 0.40 0.37 0.32 0.36 0.41 0.40 0.38 0.41 0.39 0.39 0.38
1.04 1.07 1.12 1.14 1.11 1.21 1.20 1.17 1.09 1.05 0.87 0.81 0.79 0.73 0.74 0.79 0.81 0.82 0.82 0.81 0.79 0.78 0.73 0.67 0.63 0.59 0.56 0.44 0.39 0.36 0.36 0.36 0.36 0.36 0.34 0.35 0.35 0.39 0.41 0.38 0.39 0.38 0.38

GFSSE_prec_pwat_060.txt.gz
Precipitable_Water
1.60 1.80 1.78 1.66 1.59 1.53 1.42 1.37 1.38 1.41 1.39 1.32 1.23 1.15 1.02 0.89 0.78 0.69 0.63 0.64 0.69 0.69 0.68 0.75 0.77 0.81 0.87 0.95 1.05 1.09 1.04 1.05 0.99 0.92 0.92 0.89 0.88 0.86 0.82 0.80 0.79 0.81 0.91
1.68 1.81 1.77 1.67 1.61 1.56 1.48 1.41 1.44 1.44 1.36 1.28 1.13 1.00 0.87 0.74 0.69 0.66 0.71 0.74 0.76 0.72 0.75 0.81 0.87 0.89 0.89 0.94 1.06 1.05 0.99 0.87 0.85 0.84 0.83 0.79 0.78 0.77 0.77 0.78 0.81 0.81 0.79
1.70 1.78 1.74 1.68 1.64 1.58 1.50 1.42 1.42 1.38 1.35 1.17 0.98 0.89 0.77 0.70 0.73 0.76 0.76 0.76 0.76 0.77 0.79 0.87 0.93 0.94 0.96 0.95 1.02 0.97 0.83 0.81 0.82 0.81 0.82 0.82 0.81 0.80 0.76 0.74 0.73 0.74 0.79
1.68 1.73 1.73 1.72 1.67 1.61 1.55 1.46 1.42 1.42 1.20 1.03 0.87 0.84 0.76 0.75 0.79 0.78 0.76 0.78 0.77 0.80 0.83 0.88 0.92 0.96 0.94 0.98 0.95 0.82 0.79 0.81 0.83 0.83 0.83 0.86 0.88 0.87 0.84 0.81 0.77 0.76 0.75
1.65 1.73 1.73 1.73 1.69 1.64 1.58 1.53 1.45 1.35 1.14 0.94 0.84 0.85 0.78 0.77 0.80 0.79 0.81 0.82 0.83 0.82 0.82 0.85 0.87 0.91 0.93 0.92 0.83 0.83 0.87 0.87 0.86 0.85 0.85 0.86 0.87 0.87 0.82 0.82 0.81 0.80 0.80
1.74 1.79 1.79 1.76 1.71 1.68 1.64 1.57 1.44 1.27 1.01 0.90 0.86 0.83 0.83 0.87 0.82 0.81 0.86 0.83 0.85 0.84 0.83 0.86 0.85 0.85 0.84 0.83 0.85 0.90 0.93 0.90 0.88 0.86 0.84 0.85 0.86 0.88 0.83 0.80 0.78 0.78 0.80
1.66 1.76 1.81 1.76 1.73 1.78 1.70 1.62 1.36 1.18 1.03 0.86 0.90 0.89 0.90 0.89 0.81 0.86 0.84 0.84 0.85 0.84 0.82 0.81 0.82 0.84 0.89 0.91 0.93 0.92 0.91 0.89 0.86 0.84 0.85 0.85 0.86 0.86 0.83 0.77 0.72 0.71 0.73
1.63 1.75 1.82 1.80 1.78 1.75 1.73 1.55 1.26 1.14 0.90 0.95 0.90 0.94 0.92 0.87 0.83 0.82 0.81 0.77 0.79 0.85 0.86 0.84 0.87 0.91 0.94 0.95 0.96 0.93 0.90 0.87 0.85 0.83 0.84 0.86 0.86 0.85 0.81 0.75 0.71 0.67 0.65
1.69 1.83 1.80 1.80 1.75 1.76 1.55 1.36 1.19 1.07 1.06 0.88 0.93 0.93 0.88 0.84 0.83 0.80 0.78 0.79 0.79 0.83 0.92 0.97 0.99 1.00 1.00 1.00 0.99 0.99 0.92 0.86 0.81 0.80 0.81 0.82 0.83 0.81 0.77 0.72 0.68 0.63 0.61
1.63 1.67 1.71 1.77 1.75 1.57 1.49 1.37 1.26 1.01 0.84 0.80 0.86 0.85 0.82 0.81 0.79 0.80 0.84 0.84 0.87 0.93 0.98 1.03 1.08 1.09 1.08 1.07 1.04 0.97 0.90 0.83 0.76 0.73 0.75 0.79 0.80 0.79 0.74 0.68 0.62 0.56 0.55
1.53 1.61 1.63 1.63 1.57 1.47 1.40 1.31 1.07 0.88 0.83 0.91 0.90 0.85 0.82 0.82 0.82 0.84 0.86 0.90 0.96 1.03 1.06 1.09 1.09 1.06 1.04 1.03 0.98 0.91 0.84 0.78 0.74 0.69 0.69 0.73 0.75 0.75 0.71 0.64 0.59 0.54 0.52
1.34 1.48 1.56 1.51 1.41 1.30 1.26 1.08 0.95 0.86 0.84 0.87 0.85 0.83 0.83 0.84 0.83 0.88 0.92 0.96 1.01 1.10 1.13 1.11 1.07 1.04 1.00 0.93 0.85 0.78 0.72 0.65 0.62 0.63 0.64 0.66 0.67 0.69 0.68 0.63 0.60 0.56 0.55
1.35 1.40 1.46 1.43 1.27 1.18 1.19 1.04 0.90 0.79 0.81 0.87 0.85 0.84 0.90 0.93 0.96 0.99 0.98 1.05 1.10 1.10 1.06 1.03 1.01 0.98 0.93 0.86 0.78 0.67 0.61 0.56 0.52 0.49 0.56 0.56 0.60 0.64 0.69 0.65 0.64 0.62 0.58
1.31 1.26 1.32 1.29 1.26 1.28 1.22 0.99 0.89 0.80 0.82 0.84 0.91 0.98 1.01 1.01 1.00 1.03 1.10 1.11 1.09 1.07 1.00 0.98 0.94 0.90 0.88 0.78 0.66 0.54 0.51 0.47 0.44 0.42 0.42 0.45 0.51 0.57 0.66 0.64 0.65 0.64 0.61
1.22 1.16 1.13 1.21 1.23 1.16 1.05 0.91 0.79 0.74 0.81 0.92 0.99 1.07 1.12 1.10 1.10 1.17 1.15 1.11 1.04 1.01 0.97 0.92 0.87 0.82 0.74 0.64 0.51 0.44 0.43 0.43 0.41 0.40 0.39 0.41 0.45 0.55 0.61 0.63 0.61 0.63 0.62
1.08 1.09 1.09 1.13 1.13 1.05 0.86 0.76 0.73 0.73 0.88 0.98 1.11 1.18 1.22 1.14 1.13 1.16 1.09 1.04 0.99 0.96 0.93 0.88 0.82 0.73 0.60 0.49 0.44 0.44 0.43 0.42 0.41 0.41 0.43 0.49 0.54 0.57 0.59 0.58 0.56 0.57 0.57
1.06 1.04 0.96 1.04 1.04 0.93 0.74 0.72 0.76 0.85 1.04 1.16 1.23 1.27 1.21 1.19 1.20 1.11 1.04 1.00 0.93 0.91 0.90 0.84 0.74 0.57 0.49 0.48 0.45 0.45 0.43 0.41 0.40 0.42 0.46 0.50 0.53 0.56 0.55 0.54 0.53 0.53 0.53
0.99 1.01 1.06 1.07 1.04 0.95 0.85 0.84 0.93 1.08 1.16 1.21 1.20 1.19 1.23 1.20 1.12 1.04 0.99 0.92 0.90 0.88 0.84 0.69 0.55 0.52 0.51 0.48 0.46 0.44 0.41 0.41 0.41 0.42 0.40 0.42 0.45 0.46 0.47 0.48 0.48 0.51 0.52
1.07 1.05 1.03 1.07 1.04 0.96 0.94 1.00 1.07 1.12 1.20 1.23 1.24 1.26 1.16 1.10 1.05 1.00 0.94 0.90 0.90 0.80 0.62 0.58 0.58 0.56 0.51 0.50 0.47 0.43 0.41 0.42 0.43 0.41 0.41 0.41 0.41 0.41 0.42 0.44 0.45 0.45 0.48
1.01 1.03 1.07 1.09 1.01 1.00 0.97 1.09 1.15 1.18 1.23 1.23 1.23 1.19 1.12 1.04 0.99 0.96 0.93 0.88 0.72 0.61 0.61 0.61 0.57 0.57 0.53 0.50 0.47 0.43 0.43 0.45 0.45 0.41 0.44 0.43 0.41 0.40 0.40 0.40 0.40 0.40 0.42
0.98 1.03 1.06 1.07 1.06 1.06 1.04 1.03 1.06 1.07 1.16 1.17 1.19 1.13 1.07 1.01 0.99 0.91 0.83 0.67 0.63 0.61 0.62 0.61 0.58 0.57 0.56 0.56 0.49 0.44 0.46 0.48 0.46 0.47 0.48 0.44 0.42 0.42 0.42 0.42 0.42 0.42 0.42
0.88 0.96 0.98 1.00 1.04 1.06 1.05 1.07 1.08 1.09 1.12 1.14 1.12 1.08 1.04 1.00 0.90 0.80 0.68 0.63 0.64 0.65 0.63 0.61 0.62 0.59 0.60 0.61 0.49 0.45 0.37 0.42 0.46 0.46 0.43 0.43 0.45 0.47 0.45 0.45 0.45 0.44 0.43
0.86 0.93 0.96 0.98 1.00 1.03 1.06 1.09 1.08 1.09 1.08 1.04 1.04 1.02 1.02 0.96 0.83 0.73 0.68 0.65 0.66 0.67 0.64 0.66 0.66 0.63 0.57 0.59 0.57 0.48 0.37 0.33 0.36 0.40 0.41 0.45 0.47 0.47 0.44 0.45 0.43 0.44 0.42
0.91 0.99 1.04 1.05 1.05 1.08 1.11 1.07 1.05 1.02 0.96 1.01 1.03 1.00 0.97 0.90 0.82 0.73 0.69 0.69 0.70 0.72 0.72 0.72 0.74 0.70 0.67 0.58 0.59 0.57 0.50 0.42 0.32 0.31 0.41 0.44 0.47 0.43 0.43 0.41 0.42 0.42 0.41
0.98 1.03 1.07 1.13 1.12 1.11 1.11 1.15 1.12 1.12 1.11 1.06 1.05 0.95 0.89 0.84 0.80 0.73 0.72 0.75 0.77 0.77 0.76 0.77 0.73 0.68 0.69 0.61 0.53 0.46 0.43 0.42 0.42 0.38 0.33 0.38 0.44 0.44 0.43 0.40 0.40 0.40 0.40
0.97 1.04 1.08 1.08 1.11 1.14 1.13 1.17 1.20 1.14 1.09 1.05 1.00 0.86 0.84 0.82 0.75 0.76 0.80 0.81 0.78 0.77 0.81 0.82 0.77 0.71 0.66 0.58 0.51 0.47 0.41 0.39 0.39 0.39 0.36 0.36 0.35 0.38 0.42 0.42 0.40 0.40 0.38

GFSSE_prec_pwat_066.txt.gz
Precipitable_Water
1.56 1.59 1.65 1.74 1.78 1.78 1.75 1.71 1.69 1.70 1.65 1.59 1.44 1.27 1.18 1.06 0.91 0.77 0.70 0.72 0.76 0.83 0.94 1.00 1.01 1.01 0.99 0.96 0.90 0.84 0.83 0.82 0.79 0.75 0.73 0.75 0.74 0.75 0.78 0.81 0.84 0.82 0.86
1.70 1.64 1.64 1.75 1.80 1.74 1.71 1.71 1.72 1.70 1.64 1.45 1.28 1.19 1.04 0.87 0.75 0.67 0.73 0.77 0.81 0.92 0.96 1.03 1.04 0.98 0.91 0.82 0.81 0.81 0.81 0.79 0.83 0.86 0.87 0.85 0.81 0.81 0.76 0.72 0.75 0.82 0.83
1.71 1.66 1.67 1.70 1.75 1.73 1.70 1.70 1.69 1.63 1.44 1.30 1.21 1.06 0.86 0.74 0.69 0.74 0.80 0.86 0.91 0.95 0.96 1.01 1.03 0.97 0.84 0.81 0.83 0.83 0.83 0.81 0.83 0.84 0.88 0.87 0.86 0.86 0.84 0.82 0.83 0.85 0.81
1.71 1.64 1.66 1.65 1.68 1.70 1.69 1.65 1.53 1.44 1.35 1.19 1.04 0.90 0.76 0.74 0.77 0.83 0.89 0.97 0.98 0.98 0.98 1.03 1.03 0.93 0.84 0.86 0.89 0.87 0.85 0.83 0.84 0.89 0.90 0.89 0.85 0.81 0.79 0.82 0.83 0.88 0.93
1.68 1.64 1.65 1.60 1.59 1.56 1.50 1.44 1.43 1.36 1.20 1.02 0.91 0.83 0.79 0.82 0.83 0.87 0.94 1.00 1.04 1.02 1.03 1.05 1.02 0.89 0.89 0.92 0.94 0.92 0.88 0.86 0.88 0.91 0.90 0.92 0.89 0.81 0.75 0.72 0.78 0.80 0.80
1.74 1.70 1.69 1.61 1.59 1.56 1.49 1.47 1.40 1.23 1.06 0.96 0.88 0.88 0.89 0.89 0.87 0.89 0.96 1.02 1.08 1.09 1.07 1.07 0.99 0.92 0.95 0.97 0.98 0.95 0.91 0.88 0.93 0.93 0.95 0.91 0.88 0.79 0.72 0.69 0.70 0.72 0.77
1.76 1.87 1.76 1.68 1.64 1.62 1.58 1.49 1.32 1.15 1.02 0.95 0.97 0.98 0.97 0.95 0.92 0.93 0.98 1.01 1.05 1.09 1.08 1.03 0.95 0.97 1.00 1.01 1.01 0.97 0.91 0.89 0.91 0.90 0.92 0.92 0.85 0.78 0.71 0.65 0.64 0.65 0.67
1.83 1.88 1.83 1.76 1.75 1.69 1.64 1.52 1.34 1.16 1.01 0.99 1.04 1.04 0.99 0.95 0.97 0.98 1.01 1.02 1.02 1.04 1.01 0.96 0.97 1.01 1.04 1.03 1.02 0.97 0.91 0.89 0.91 0.88 0.90 0.89 0.80 0.75 0.66 0.61 0.59 0.61 0.61
1.70 1.79 1.78 1.83 1.90 1.83 1.71 1.53 1.34 1.15 1.01 1.06 1.06 1.03 1.01 0.97 1.01 1.02 0.99 0.98 0.98 0.97 0.97 0.99 1.02 1.06 1.06 1.05 1.01 0.95 0.88 0.84 0.89 0.88 0.88 0.89 0.80 0.74 0.66 0.60 0.57 0.56 0.56
1.72 1.74 1.70 1.78 1.81 1.66 1.51 1.35 1.19 1.06 1.10 1.10 1.00 0.99 1.00 1.01 0.99 0.94 0.93 0.95 0.96 0.98 0.99 1.04 1.08 1.09 1.09 1.05 0.99 0.93 0.85 0.81 0.80 0.79 0.82 0.77 0.78 0.74 0.68 0.61 0.58 0.57 0.58
1.62 1.66 1.67 1.65 1.68 1.60 1.41 1.31 1.28 1.18 1.14 1.05 0.96 1.01 0.97 0.93 0.94 0.96 1.02 1.01 1.00 1.00 1.06 1.08 1.09 1.09 1.08 1.04 0.91 0.82 0.76 0.73 0.72 0.71 0.76 0.76 0.76 0.75 0.70 0.66 0.62 0.58 0.58
1.39 1.51 1.61 1.65 1.52 1.49 1.38 1.32 1.30 1.27 1.18 1.09 1.09 0.97 0.95 1.01 1.02 1.01 1.00 1.01 1.01 1.06 1.08 1.07 1.07 1.04 1.00 0.94 0.82 0.71 0.63 0.60 0.61 0.62 0.68 0.66 0.69 0.72 0.70 0.68 0.65 0.60 0.58
1.44 1.48 1.51 1.55 1.50 1.36 1.33 1.27 1.23 1.30 1.34 1.15 0.96 0.92 1.01 1.03 1.00 1.01 1.00 1.00 1.04 1.07 1.04 1.04 1.05 1.03 0.99 0.89 0.77 0.62 0.56 0.53 0.51 0.49 0.53 0.52 0.56 0.68 0.70 0.66 0.63 0.60 0.57
1.35 1.40 1.45 1.47 1.44 1.40 1.34 1.31 1.33 1.21 1.16 0.99 0.95 0.95 0.94 0.96 0.99 1.02 1.03 1.07 1.09 1.11 1.09 1.07 1.03 1.01 0.93 0.79 0.66 0.55 0.53 0.50 0.47 0.46 0.50 0.43 0.47 0.59 0.68 0.64 0.63 0.59 0.57
1.30 1.36 1.41 1.48 1.43 1.36 1.31 1.23 1.14 1.12 1.03 0.95 0.92 0.93 0.95 0.94 0.94 1.03 1.07 1.08 1.11 1.14 1.10 1.03 0.98 0.88 0.80 0.69 0.57 0.52 0.51 0.50 0.48 0.47 0.59 0.49 0.49 0.58 0.68 0.63 0.63 0.64 0.60
1.35 1.38 1.39 1.37 1.30 1.24 1.23 1.13 0.98 0.88 0.96 0.94 0.94 0.95 0.94 0.98 1.06 1.07 1.08 1.10 1.12 1.09 1.04 0.97 0.88 0.78 0.66 0.60 0.54 0.51 0.47 0.47 0.49 0.50 0.54 0.57 0.55 0.58 0.63 0.62 0.60 0.62 0.62
1.28 1.30 1.27 1.30 1.28 1.21 1.19 1.01 0.91 0.91 0.90 0.86 0.88 0.98 1.13 1.20 1.17 1.16 1.12 1.16 1.11 1.06 0.96 0.90 0.85 0.71 0.61 0.55 0.51 0.51 0.48 0.47 0.48 0.48 0.48 0.53 0.59 0.58 0.57 0.58 0.58 0.58 0.59
0.94 0.92 0.97 1.21 1.24 1.22 1.09 0.92 0.81 0.85 0.90 0.90 1.00 1.15 1.24 1.28 1.23 1.21 1.23 1.13 1.06 0.98 0.89 0.86 0.76 0.63 0.56 0.54 0.52 0.51 0.49 0.48 0.49 0.48 0.47 0.49 0.53 0.51 0.54 0.52 0.50 0.50 0.48
0.98 0.95 0.98 1.08 1.07 1.04 1.00 0.88 0.83 0.84 0.85 1.03 1.18 1.27 1.30 1.34 1.30 1.28 1.15 1.06 1.00 0.91 0.88 0.81 0.68 0.57 0.56 0.54 0.53 0.57 0.54 0.52 0.54 0.51 0.50 0.52 0.54 0.49 0.46 0.51 0.44 0.42 0.43
1.01 1.05 1.06 1.06 1.11 1.05 0.97 0.86 0.85 0.91 0.99 1.15 1.23 1.30 1.32 1.31 1.30 1.20 1.06 0.98 0.94 0.88 0.84 0.73 0.58 0.60 0.60 0.60 0.60 0.62 0.62 0.60 0.61 0.60 0.56 0.55 0.53 0.51 0.51 0.50 0.48 0.48 0.45
0.91 0.91 0.91 0.93 1.04 1.08 1.00 0.89 0.86 0.88 1.00 1.09 1.20 1.28 1.27 1.28 1.29 1.14 1.00 0.95 0.92 0.85 0.77 0.64 0.61 0.61 0.63 0.69 0.67 0.65 0.65 0.68 0.67 0.65 0.64 0.56 0.55 0.54 0.54 0.52 0.50 0.49 0.47
0.97 1.00 1.04 1.07 1.13 1.10 1.05 0.95 0.91 0.92 0.99 1.10 1.18 1.30 1.29 1.28 1.26 1.08 0.99 0.95 0.90 0.81 0.70 0.63 0.63 0.65 0.69 0.72 0.65 0.63 0.57 0.61 0.67 0.68 0.65 0.57 0.55 0.52 0.51 0.52 0.53 0.50 0.47
0.88 0.92 0.98 1.05 1.09 1.14 1.10 1.03 1.00 1.06 1.11 1.09 1.15 1.25 1.30 1.29 1.20 1.07 1.02 0.95 0.90 0.78 0.66 0.67 0.70 0.71 0.71 0.74 0.75 0.64 0.59 0.55 0.51 0.53 0.54 0.55 0.53 0.55 0.54 0.52 0.49 0.48 0.45
0.83 0.90 0.99 1.05 1.08 1.11 1.12 1.04 0.97 0.95 0.96 1.08 1.16 1.24 1.25 1.25 1.17 1.08 1.05 0.96 0.86 0.76 0.71 0.72 0.76 0.78 0.76 0.69 0.70 0.70 0.65 0.58 0.46 0.39 0.45 0.49 0.53 0.54 0.51 0.50 0.46 0.45 0.42
0.87 0.90 0.94 1.02 1.06 1.12 1.13 1.10 1.06 1.05 1.12 1.18 1.16 1.18 1.23 1.25 1.20 1.13 1.06 0.94 0.83 0.81 0.79 0.77 0.80 0.80 0.76 0.73 0.69 0.65 0.62 0.58 0.53 0.46 0.43 0.45 0.45 0.46 0.46 0.43 0.38 0.36 0.36
0.92 0.97 1.01 1.02 1.07 1.18 1.23 1.21 1.17 1.12 1.16 1.15 1.16 1.17 1.20 1.24 1.16 1.09 1.02 0.97 0.86 0.83 0.83 0.85 0.85 0.80 0.81 0.74 0.72 0.68 0.61 0.50 0.46 0.44 0.42 0.40 0.38 0.38 0.37 0.36 0.34 0.33 0.35

GFSSE_prec_pwat_069.txt.gz
Precipitable_Water
1.37 1.49 1.61 1.72 1.75 1.74 1.73 1.70 1.64 1.62 1.60 1.54 1.45 1.28 1.16 1.08 0.96 0.85 0.84 0.86 0.90 0.97 1.06 1.09 1.09 1.05 0.91 0.87 0.82 0.80 0.76 0.78 0.79 0.76 0.76 0.79 0.77 0.77 0.82 0.84 0.84 0.83 0.88
1.39 1.53 1.64 1.73 1.72 1.75 1.74 1.68 1.64 1.67 1.62 1.55 1.37 1.22 1.08 0.93 0.82 0.79 0.82 0.87 0.98 1.05 1.07 1.06 1.00 0.90 0.84 0.82 0.80 0.78 0.81 0.84 0.89 0.94 0.91 0.87 0.84 0.83 0.82 0.82 0.81 0.82 0.84
1.43 1.59 1.68 1.73 1.76 1.78 1.75 1.69 1.70 1.70 1.62 1.48 1.27 1.17 0.93 0.80 0.77 0.81 0.86 0.97 1.03 1.10 1.08 1.02 0.91 0.86 0.86 0.86 0.82 0.82 0.80 0.85 0.93 1.00 0.95 0.89 0.84 0.83 0.84 0.84 0.93 0.91 0.85
1.56 1.65 1.68 1.77 1.80 1.79 1.74 1.72 1.72 1.70 1.57 1.32 1.21 1.03 0.83 0.75 0.81 0.85 0.91 0.98 1.01 1.10 1.12 1.03 0.92 0.93 0.92 0.91 0.86 0.82 0.82 0.88 0.95 1.03 0.98 0.92 0.82 0.77 0.82 0.82 0.81 0.87 0.91
1.64 1.61 1.69 1.80 1.81 1.79 1.76 1.73 1.71 1.64 1.41 1.26 1.09 0.91 0.78 0.83 0.88 0.94 0.98 1.02 1.06 1.13 1.15 1.03 0.96 0.96 0.96 0.93 0.89 0.86 0.90 0.96 0.99 0.96 0.95 0.91 0.79 0.74 0.71 0.71 0.75 0.73 0.74
1.72 1.67 1.69 1.78 1.82 1.78 1.74 1.72 1.65 1.43 1.35 1.15 0.96 0.85 0.88 0.93 1.00 1.04 1.09 1.10 1.12 1.17 1.15 1.03 0.99 1.00 0.98 0.94 0.91 0.87 0.91 0.98 1.03 1.00 1.01 0.88 0.78 0.70 0.66 0.67 0.68 0.69 0.70
1.69 1.78 1.72 1.75 1.80 1.77 1.74 1.65 1.47 1.42 1.26 1.03 0.90 0.88 0.94 0.97 1.01 1.06 1.12 1.15 1.18 1.19 1.10 1.03 1.03 1.03 1.00 0.97 0.92 0.87 0.83 0.92 0.94 0.98 0.98 0.87 0.76 0.66 0.62 0.61 0.61 0.62 0.63
1.77 1.88 1.84 1.78 1.76 1.75 1.62 1.51 1.45 1.32 1.13 0.99 0.92 0.93 0.97 1.00 1.03 1.06 1.11 1.11 1.12 1.10 1.07 1.03 1.06 1.03 1.02 1.00 0.92 0.85 0.84 0.94 0.93 0.94 1.00 0.91 0.77 0.68 0.62 0.59 0.58 0.59 0.60
1.67 1.59 1.70 1.70 1.83 1.76 1.67 1.58 1.43 1.23 1.11 1.05 1.04 0.98 1.03 1.02 1.04 1.02 1.06 1.09 1.07 1.06 1.03 1.05 1.06 1.05 1.06 1.01 0.94 0.83 0.78 0.90 0.91 0.90 0.91 0.84 0.76 0.69 0.64 0.60 0.60 0.61 0.60
1.61 1.70 1.59 1.67 1.80 1.76 1.65 1.49 1.34 1.25 1.19 1.08 1.00 1.00 1.04 1.02 1.02 1.03 1.03 1.03 1.03 1.00 1.03 1.05 1.08 1.09 1.08 1.03 0.93 0.82 0.82 0.84 0.79 0.82 0.86 0.75 0.76 0.73 0.66 0.62 0.60 0.60 0.59
1.54 1.66 1.63 1.66 1.72 1.58 1.48 1.39 1.32 1.26 1.13 1.06 1.02 1.04 1.05 1.01 1.01 1.02 1.05 1.00 1.00 1.03 1.07 1.07 1.09 1.10 1.07 1.00 0.88 0.71 0.72 0.71 0.72 0.76 0.82 0.74 0.77 0.75 0.70 0.64 0.59 0.59 0.57
1.45 1.54 1.61 1.61 1.60 1.52 1.47 1.41 1.42 1.33 1.17 1.11 1.07 1.06 1.06 1.09 1.08 1.03 1.01 0.98 0.99 1.05 1.04 1.07 1.12 1.08 1.02 0.94 0.83 0.69 0.62 0.61 0.59 0.63 0.73 0.69 0.74 0.74 0.68 0.63 0.61 0.60 0.56
1.48 1.50 1.53 1.55 1.52 1.50 1.49 1.44 1.35 1.30 1.20 1.14 1.13 1.12 1.12 1.14 1.11 1.05 0.99 0.99 1.01 1.06 1.08 1.08 1.07 1.05 1.06 0.95 0.78 0.62 0.57 0.55 0.54 0.52 0.56 0.51 0.59 0.72 0.69 0.65 0.62 0.61 0.59
1.39 1.42 1.51 1.52 1.48 1.47 1.46 1.32 1.22 1.12 1.13 1.19 1.19 1.19 1.17 1.13 1.08 0.99 0.97 1.00 1.05 1.10 1.09 1.12 1.09 1.06 0.95 0.82 0.67 0.60 0.58 0.53 0.50 0.48 0.62 0.45 0.47 0.64 0.72 0.70 0.67 0.63 0.62
1.27 1.35 1.41 1.44 1.42 1.37 1.30 1.20 1.25 1.29 1.31 1.25 1.13 1.18 1.18 1.12 1.08 1.05 1.06 1.05 1.10 1.13 1.15 1.11 1.04 0.94 0.84 0.69 0.61 0.57 0.53 0.54 0.52 0.51 0.66 0.47 0.47 0.56 0.72 0.67 0.66 0.65 0.63
1.25 1.31 1.37 1.35 1.36 1.31 1.27 1.23 1.16 1.16 1.09 1.02 1.10 1.11 1.15 1.10 1.06 1.09 1.09 1.11 1.13 1.16 1.15 1.06 0.94 0.89 0.72 0.65 0.59 0.55 0.52 0.52 0.54 0.54 0.60 0.61 0.54 0.60 0.64 0.63 0.60 0.61 0.62
1.30 1.35 1.34 1.38 1.37 1.32 1.26 1.23 1.14 1.13 1.06 1.06 1.05 1.08 1.08 1.04 1.04 1.11 1.12 1.12 1.15 1.19 1.10 0.99 0.94 0.85 0.68 0.58 0.57 0.56 0.56 0.56 0.54 0.51 0.52 0.62 0.64 0.63 0.61 0.61 0.61 0.60 0.59
1.30 1.32 1.36 1.28 1.24 1.19 1.22 1.08 1.05 1.05 1.10 1.04 1.04 1.08 1.06 1.11 1.23 1.19 1.14 1.17 1.22 1.12 1.05 0.96 0.86 0.78 0.62 0.57 0.56 0.56 0.57 0.56 0.56 0.55 0.56 0.56 0.58 0.57 0.58 0.56 0.50 0.47 0.48
1.15 1.19 1.14 1.14 1.19 1.25 1.22 1.11 0.99 1.01 1.00 1.00 1.06 1.11 1.14 1.26 1.29 1.22 1.21 1.25 1.17 1.08 0.96 0.90 0.83 0.73 0.57 0.58 0.58 0.61 0.65 0.63 0.64 0.58 0.58 0.57 0.62 0.57 0.53 0.52 0.51 0.48 0.48
0.95 0.97 1.13 1.24 1.26 1.25 1.15 1.01 0.87 0.85 0.89 0.94 1.02 1.14 1.23 1.33 1.33 1.32 1.27 1.18 1.10 0.97 0.91 0.87 0.79 0.67 0.61 0.61 0.58 0.61 0.69 0.68 0.65 0.64 0.64 0.64 0.62 0.62 0.59 0.56 0.52 0.52 0.50
0.89 0.91 0.97 1.13 1.12 1.10 0.94 0.79 0.74 0.73 0.85 0.99 1.18 1.27 1.30 1.31 1.32 1.28 1.23 1.11 1.04 0.94 0.91 0.84 0.78 0.62 0.60 0.67 0.67 0.70 0.70 0.71 0.70 0.70 0.68 0.66 0.60 0.58 0.55 0.55 0.56 0.53 0.51
0.85 0.90 0.92 0.95 1.07 1.05 0.99 0.93 0.88 0.87 0.91 1.00 1.16 1.21 1.29 1.25 1.25 1.26 1.19 1.07 1.03 0.94 0.90 0.85 0.74 0.62 0.67 0.71 0.69 0.69 0.62 0.65 0.67 0.66 0.66 0.64 0.58 0.58 0.55 0.54 0.55 0.54 0.52
0.89 0.93 0.95 0.99 1.03 1.08 1.09 1.02 0.94 0.93 0.95 1.00 1.14 1.11 1.19 1.26 1.28 1.30 1.23 1.11 1.06 1.01 0.89 0.86 0.74 0.68 0.66 0.73 0.77 0.71 0.59 0.56 0.58 0.62 0.58 0.56 0.58 0.56 0.59 0.57 0.54 0.53 0.50
0.93 0.99 1.01 1.04 1.06 1.13 1.11 1.07 0.97 0.91 0.90 1.02 1.11 1.15 1.19 1.29 1.30 1.29 1.24 1.19 1.08 1.04 0.95 0.88 0.81 0.77 0.75 0.72 0.77 0.76 0.74 0.66 0.57 0.52 0.55 0.53 0.53 0.54 0.55 0.56 0.54 0.52 0.45
0.88 0.92 1.00 1.03 1.07 1.11 1.13 1.09 1.02 0.97 1.03 1.10 1.16 1.18 1.20 1.22 1.27 1.29 1.28 1.22 1.14 1.09 1.00 0.93 0.84 0.81 0.82 0.77 0.77 0.75 0.71 0.69 0.68 0.58 0.48 0.51 0.54 0.51 0.50 0.51 0.49 0.44 0.38
0.89 0.90 0.92 0.96 1.04 1.12 1.16 1.18 1.15 1.08 1.06 1.08 1.19 1.19 1.19 1.18 1.22 1.29 1.25 1.21 1.22 1.11 1.04 0.98 0.89 0.87 0.83 0.83 0.82 0.76 0.74 0.69 0.61 0.54 0.49 0.48 0.46 0.47 0.48 0.45 0.42 0.38 0.38

GFSSE_prec_pwat_072.txt.gz
Precipitable_Water
1.48 1.63 1.58 1.56 1.53 1.52 1.55 1.53 1.50 1.48 1.44 1.39 1.32 1.22 1.12 1.03 0.97 0.88 0.94 0.95 1.03 1.04 1.10 1.06 0.96 0.89 0.81 0.75 0.79 0.83 0.86 0.88 0.89 0.84 0.83 0.83 0.82 0.83 0.83 0.84 0.83 0.85 0.92
1.86 1.59 1.62 1.64 1.60 1.60 1.58 1.55 1.54 1.53 1.48 1.42 1.29 1.20 1.07 0.95 0.86 0.90 0.95 1.04 1.07 1.11 1.10 0.94 0.88 0.84 0.80 0.80 0.82 0.86 0.95 1.01 1.01 0.94 0.83 0.85 0.88 0.88 0.93 0.93 0.87 0.86 0.87
1.79 1.74 1.72 1.72 1.66 1.66 1.62 1.58 1.58 1.59 1.51 1.43 1.26 1.17 1.00 0.87 0.86 0.91 1.04 1.11 1.11 1.07 0.99 0.91 0.88 0.85 0.81 0.80 0.79 0.89 0.95 1.04 1.11 1.08 0.89 0.76 0.80 0.85 0.83 0.87 0.92 0.91 0.92
1.86 1.79 1.74 1.80 1.75 1.71 1.68 1.64 1.64 1.62 1.54 1.42 1.23 1.08 0.90 0.86 0.91 1.02 1.11 1.17 1.10 1.02 0.94 0.94 0.94 0.89 0.85 0.80 0.84 0.93 0.99 1.05 1.09 1.05 0.88 0.76 0.72 0.75 0.79 0.77 0.78 0.83 0.85
1.77 1.75 1.81 1.82 1.82 1.78 1.75 1.70 1.68 1.66 1.55 1.33 1.15 0.93 0.85 0.89 0.97 1.05 1.09 1.15 1.12 1.02 0.98 0.98 0.97 0.93 0.90 0.85 0.92 0.97 1.02 1.05 1.05 0.97 0.84 0.74 0.71 0.72 0.70 0.69 0.70 0.72 0.75
1.73 1.84 1.91 1.88 1.82 1.80 1.78 1.74 1.73 1.65 1.50 1.26 1.05 0.92 0.88 0.95 1.05 1.09 1.08 1.14 1.14 1.01 1.01 1.02 1.00 0.97 0.92 0.85 0.92 0.97 1.02 1.05 1.10 0.95 0.80 0.73 0.67 0.65 0.64 0.63 0.65 0.66 0.68
1.68 1.83 1.83 1.88 1.82 1.85 1.81 1.78 1.75 1.64 1.39 1.19 0.97 0.90 0.95 1.03 1.07 1.10 1.12 1.18 1.15 1.01 1.04 1.04 1.01 1.02 0.95 0.86 0.81 0.93 0.97 0.97 1.03 0.96 0.91 0.73 0.69 0.66 0.62 0.60 0.60 0.62 0.64
1.71 1.87 1.93 1.90 1.85 1.89 1.85 1.79 1.70 1.49 1.34 1.09 0.95 0.94 1.00 1.10 1.14 1.17 1.16 1.17 1.11 1.06 1.06 1.06 1.06 1.04 0.93 0.89 0.79 0.88 0.93 0.94 1.02 1.00 0.91 0.72 0.68 0.65 0.63 0.61 0.61 0.60 0.62
1.76 1.49 1.68 1.78 1.98 1.88 1.90 1.79 1.64 1.43 1.25 1.06 0.98 0.97 1.01 1.12 1.17 1.20 1.16 1.15 1.09 1.07 1.08 1.07 1.08 1.00 0.97 0.91 0.79 0.86 0.88 0.90 0.95 0.90 0.82 0.68 0.67 0.64 0.63 0.61 0.61 0.59 0.61
1.66 1.53 1.39 1.54 1.71 1.89 1.86 1.72 1.55 1.41 1.23 1.05 0.98 1.02 1.08 1.15 1.19 1.17 1.14 1.09 1.06 1.07 1.08 1.07 1.04 1.04 1.02 0.95 0.84 0.85 0.83 0.81 0.86 0.86 0.82 0.69 0.73 0.67 0.62 0.60 0.60 0.59 0.63
1.57 1.57 1.54 1.52 1.59 1.61 1.63 1.57 1.48 1.36 1.16 1.07 1.05 1.07 1.11 1.14 1.15 1.14 1.10 1.06 1.05 1.06 1.07 1.05 1.05 1.05 1.04 0.94 0.77 0.73 0.68 0.68 0.77 0.79 0.78 0.70 0.74 0.70 0.64 0.59 0.58 0.57 0.60
1.35 1.45 1.55 1.52 1.54 1.57 1.53 1.53 1.44 1.33 1.16 1.14 1.08 1.08 1.11 1.14 1.11 1.10 1.08 1.05 1.02 1.06 1.06 1.06 1.04 1.03 1.02 0.97 0.82 0.67 0.58 0.57 0.64 0.70 0.68 0.68 0.76 0.72 0.67 0.62 0.59 0.57 0.58
1.36 1.47 1.56 1.54 1.56 1.56 1.48 1.42 1.30 1.24 1.24 1.18 1.07 1.08 1.14 1.16 1.11 1.06 1.03 1.00 1.00 1.02 1.03 1.04 1.06 1.05 1.02 0.95 0.77 0.59 0.57 0.56 0.57 0.58 0.60 0.59 0.68 0.73 0.69 0.64 0.63 0.62 0.60
1.31 1.40 1.50 1.53 1.48 1.54 1.41 1.39 1.41 1.37 1.23 1.13 1.15 1.15 1.24 1.19 1.11 1.01 0.99 0.98 1.01 1.05 1.02 1.05 1.11 1.06 0.95 0.83 0.63 0.57 0.56 0.54 0.51 0.57 0.58 0.46 0.54 0.71 0.70 0.69 0.67 0.63 0.61
1.24 1.33 1.39 1.45 1.48 1.54 1.49 1.49 1.46 1.31 1.16 1.19 1.20 1.24 1.22 1.19 1.05 1.09 1.04 0.99 1.02 1.05 1.05 1.11 1.09 0.99 0.88 0.70 0.60 0.58 0.55 0.55 0.53 0.62 0.59 0.47 0.45 0.62 0.72 0.69 0.71 0.69 0.65
1.24 1.29 1.34 1.37 1.45 1.48 1.45 1.41 1.32 1.19 1.16 1.11 1.14 1.24 1.29 1.18 1.16 1.11 1.06 1.05 1.06 1.08 1.11 1.12 1.05 0.92 0.82 0.67 0.59 0.56 0.53 0.55 0.55 0.60 0.62 0.60 0.55 0.64 0.69 0.66 0.63 0.63 0.64
1.24 1.28 1.29 1.36 1.42 1.39 1.34 1.31 1.25 1.16 1.13 1.11 1.20 1.25 1.17 1.19 1.22 1.19 1.10 1.11 1.09 1.13 1.14 1.14 0.98 0.89 0.81 0.62 0.57 0.56 0.57 0.58 0.57 0.54 0.63 0.66 0.66 0.67 0.67 0.66 0.65 0.61 0.58
1.18 1.20 1.35 1.34 1.29 1.25 1.23 1.21 1.20 1.24 1.19 1.17 1.10 1.00 1.12 1.19 1.15 1.15 1.11 1.10 1.14 1.19 1.17 1.05 0.93 0.84 0.76 0.59 0.55 0.55 0.56 0.59 0.63 0.60 0.60 0.63 0.70 0.70 0.65 0.61 0.57 0.50 0.44
1.25 1.29 1.27 1.27 1.18 1.09 1.07 1.06 1.04 1.01 0.99 1.08 1.04 1.06 1.02 1.13 1.25 1.15 1.15 1.15 1.17 1.20 1.11 0.99 0.90 0.83 0.71 0.58 0.58 0.60 0.62 0.63 0.65 0.65 0.61 0.61 0.61 0.59 0.60 0.56 0.52 0.51 0.50
1.16 1.16 1.13 1.09 1.06 1.02 0.96 0.98 1.03 1.04 1.01 1.05 1.08 1.11 1.13 1.18 1.19 1.25 1.20 1.18 1.20 1.13 1.02 0.94 0.87 0.83 0.70 0.61 0.58 0.55 0.64 0.70 0.71 0.68 0.67 0.65 0.62 0.61 0.59 0.57 0.56 0.55 0.53
0.93 1.04 1.07 1.07 1.11 1.15 1.13 1.06 0.98 0.88 0.87 0.95 1.00 1.08 1.17 1.24 1.23 1.24 1.27 1.27 1.18 1.05 0.97 0.95 0.89 0.78 0.71 0.64 0.60 0.63 0.71 0.74 0.73 0.72 0.71 0.67 0.64 0.62 0.61 0.59 0.56 0.56 0.55
0.79 0.84 0.96 1.01 1.14 1.10 0.99 0.91 0.83 0.79 0.82 0.88 0.99 1.12 1.19 1.23 1.24 1.23 1.25 1.17 1.16 1.06 1.01 0.94 0.87 0.80 0.76 0.69 0.62 0.66 0.61 0.68 0.72 0.74 0.72 0.68 0.67 0.66 0.62 0.58 0.57 0.57 0.56
0.77 0.82 0.85 1.01 1.06 1.01 0.97 0.97 0.90 0.88 0.86 0.85 1.04 1.09 1.11 1.20 1.25 1.21 1.19 1.19 1.20 1.16 1.04 1.01 0.95 0.87 0.75 0.75 0.74 0.67 0.63 0.62 0.68 0.72 0.69 0.68 0.67 0.62 0.60 0.62 0.62 0.61 0.57
0.74 0.83 0.94 0.98 1.05 1.04 1.04 1.01 0.88 0.81 0.77 0.88 0.99 1.14 1.13 1.13 1.20 1.21 1.24 1.26 1.23 1.20 1.16 1.08 1.02 0.97 0.89 0.77 0.78 0.77 0.78 0.74 0.63 0.60 0.67 0.66 0.63 0.62 0.62 0.60 0.61 0.60 0.57
0.86 0.88 0.91 0.96 0.99 1.02 1.04 1.11 1.00 0.88 0.90 0.91 1.02 1.15 1.21 1.19 1.23 1.25 1.26 1.24 1.23 1.24 1.21 1.16 1.07 1.02 0.98 0.87 0.79 0.77 0.80 0.78 0.77 0.67 0.58 0.60 0.63 0.65 0.64 0.62 0.58 0.57 0.56
0.93 0.93 0.97 0.95 0.98 1.05 1.14 1.07 1.10 1.04 1.02 1.06 1.15 1.17 1.24 1.26 1.22 1.30 1.29 1.28 1.30 1.26 1.19 1.17 1.14 1.07 0.99 0.93 0.84 0.82 0.81 0.76 0.73 0.69 0.60 0.59 0.57 0.58 0.58 0.57 0.55 0.51 0.47

GFSSE_prec_pwat_075.txt.gz
Precipitable_Water
1.63 1.86 1.90 1.74 1.50 1.48 1.45 1.40 1.40 1.35 1.31 1.29 1.21 1.11 1.01 0.95 0.92 0.95 0.99 1.00 1.01 1.03 1.04 0.97 0.89 0.83 0.82 0.83 0.88 0.93 0.94 0.93 0.85 0.80 0.81 0.83 0.87 0.88 0.85 0.81 0.81 0.85 0.89
1.57 1.81 1.99 1.81 1.64 1.56 1.50 1.46 1.45 1.40 1.39 1.33 1.22 1.13 1.00 0.93 0.93 1.01 1.05 1.09 1.10 1.02 0.95 0.84 0.79 0.80 0.86 0.95 0.98 1.02 1.03 0.95 0.89 0.84 0.81 0.85 0.85 0.90 0.93 0.91 0.89 0.86 0.84
1.22 1.54 1.92 1.94 1.76 1.69 1.57 1.54 1.52 1.45 1.40 1.32 1.20 1.09 0.96 0.93 1.00 1.08 1.10 1.12 1.03 0.92 0.85 0.82 0.81 0.83 0.90 0.94 0.99 1.03 1.09 1.07 0.94 0.86 0.70 0.75 0.82 0.82 0.82 0.85 0.86 0.90 0.90
1.14 1.18 1.45 1.96 1.87 1.78 1.64 1.63 1.58 1.52 1.44 1.31 1.17 0.99 0.93 0.95 1.06 1.13 1.10 1.03 0.93 0.91 0.89 0.86 0.81 0.81 0.90 0.93 0.96 0.99 1.05 0.98 0.91 0.87 0.66 0.70 0.73 0.76 0.75 0.75 0.77 0.79 0.85
1.02 1.10 1.24 1.98 1.93 1.82 1.71 1.68 1.61 1.52 1.45 1.28 1.07 0.92 0.90 1.03 1.15 1.16 1.05 0.94 0.91 0.93 0.92 0.87 0.82 0.84 0.90 0.95 0.98 1.00 1.07 1.02 0.97 0.69 0.64 0.68 0.69 0.71 0.69 0.67 0.70 0.73 0.81
1.16 1.28 1.38 1.70 1.90 1.82 1.76 1.71 1.63 1.54 1.43 1.21 1.01 0.93 0.95 1.08 1.15 1.18 1.06 0.96 0.94 0.94 0.92 0.89 0.85 0.82 0.89 0.93 0.97 1.00 1.07 1.02 0.95 0.79 0.70 0.71 0.70 0.68 0.65 0.66 0.66 0.67 0.68
1.48 1.50 1.46 2.10 1.87 1.85 1.83 1.73 1.65 1.56 1.40 1.17 0.97 0.93 0.99 1.08 1.14 1.18 1.07 0.96 0.97 0.98 0.95 0.93 0.90 0.82 0.86 0.96 0.99 1.00 1.04 0.99 0.96 0.90 0.70 0.68 0.69 0.68 0.65 0.62 0.62 0.65 0.65
1.62 1.73 1.81 2.11 1.96 1.89 1.91 1.77 1.68 1.59 1.32 1.11 0.97 0.97 1.05 1.11 1.16 1.18 1.08 0.98 1.00 1.01 1.01 0.99 0.93 0.87 0.81 0.87 0.91 0.94 1.00 1.00 0.96 0.87 0.71 0.65 0.66 0.65 0.63 0.61 0.63 0.66 0.66
1.68 1.71 1.64 1.66 1.86 1.97 1.87 1.80 1.72 1.56 1.33 1.07 0.98 1.03 1.08 1.12 1.17 1.19 1.11 1.02 1.06 1.07 1.04 1.04 1.00 0.95 0.82 0.83 0.89 0.90 0.90 0.98 0.94 0.85 0.74 0.62 0.65 0.64 0.63 0.61 0.63 0.65 0.63
1.56 1.50 1.58 1.60 1.68 1.92 1.96 1.86 1.71 1.50 1.30 1.04 1.02 1.11 1.16 1.17 1.20 1.21 1.16 1.09 1.11 1.11 1.08 1.07 1.04 0.97 0.81 0.85 0.83 0.82 0.85 0.90 0.88 0.81 0.77 0.66 0.66 0.64 0.62 0.59 0.62 0.62 0.62
1.59 1.60 1.59 1.55 1.52 1.58 1.75 1.76 1.65 1.45 1.19 1.06 1.14 1.21 1.21 1.22 1.24 1.20 1.12 1.09 1.10 1.11 1.09 1.10 1.07 0.98 0.84 0.81 0.78 0.77 0.76 0.80 0.78 0.75 0.71 0.67 0.69 0.65 0.61 0.58 0.61 0.62 0.64
1.40 1.48 1.52 1.51 1.50 1.54 1.50 1.60 1.50 1.32 1.15 1.12 1.14 1.20 1.21 1.21 1.18 1.16 1.11 1.08 1.09 1.09 1.10 1.08 1.04 0.99 0.94 0.86 0.75 0.68 0.64 0.70 0.69 0.68 0.68 0.68 0.69 0.67 0.61 0.59 0.59 0.59 0.61
1.35 1.45 1.50 1.53 1.56 1.57 1.52 1.54 1.47 1.33 1.17 1.13 1.10 1.12 1.13 1.15 1.17 1.09 1.05 1.07 1.07 1.08 1.08 1.08 1.03 1.00 0.98 0.85 0.70 0.61 0.57 0.62 0.62 0.62 0.65 0.67 0.67 0.69 0.65 0.64 0.63 0.62 0.60
1.26 1.37 1.44 1.50 1.51 1.48 1.53 1.43 1.31 1.30 1.30 1.19 1.15 1.19 1.17 1.09 1.08 1.00 1.00 1.02 1.03 1.06 1.04 1.02 1.05 1.02 0.93 0.81 0.59 0.55 0.55 0.54 0.55 0.56 0.58 0.57 0.65 0.71 0.72 0.70 0.66 0.63 0.62
1.19 1.27 1.34 1.42 1.46 1.45 1.46 1.40 1.31 1.23 1.18 1.19 1.22 1.23 1.18 1.06 1.01 1.02 0.97 0.98 1.03 1.06 1.05 1.06 1.06 1.03 0.91 0.71 0.57 0.55 0.52 0.54 0.57 0.57 0.55 0.50 0.62 0.73 0.76 0.76 0.71 0.70 0.65
1.18 1.24 1.31 1.36 1.42 1.44 1.38 1.30 1.22 1.25 1.33 1.30 1.27 1.26 1.23 1.16 1.03 0.99 0.97 0.97 1.03 1.06 1.10 1.06 1.09 1.00 0.86 0.69 0.55 0.56 0.55 0.57 0.62 0.60 0.60 0.60 0.61 0.70 0.72 0.70 0.65 0.66 0.65
1.23 1.27 1.30 1.33 1.40 1.39 1.39 1.38 1.33 1.32 1.30 1.24 1.22 1.28 1.24 1.15 1.06 1.04 1.01 0.98 1.03 1.08 1.09 1.11 1.12 0.99 0.83 0.73 0.56 0.57 0.54 0.57 0.59 0.64 0.68 0.68 0.68 0.72 0.74 0.71 0.66 0.62 0.56
1.18 1.21 1.27 1.33 1.36 1.40 1.38 1.33 1.28 1.23 1.16 1.14 1.15 1.14 1.12 1.12 1.18 1.15 1.06 1.04 1.10 1.10 1.12 1.17 1.10 0.93 0.79 0.70 0.55 0.54 0.56 0.58 0.60 0.61 0.70 0.68 0.71 0.72 0.71 0.65 0.58 0.52 0.51
1.16 1.16 1.18 1.29 1.32 1.33 1.32 1.30 1.24 1.19 1.08 1.06 1.00 1.02 1.10 1.14 1.19 1.14 1.10 1.09 1.13 1.12 1.16 1.16 1.04 0.90 0.78 0.70 0.59 0.56 0.56 0.58 0.63 0.66 0.64 0.67 0.68 0.66 0.63 0.61 0.57 0.56 0.55
1.17 1.21 1.20 1.20 1.15 1.13 1.11 1.06 1.03 0.98 0.96 0.92 0.95 0.96 0.99 1.03 1.11 1.12 1.09 1.14 1.15 1.13 1.15 1.10 0.97 0.90 0.79 0.73 0.62 0.57 0.58 0.61 0.66 0.69 0.66 0.65 0.63 0.63 0.62 0.61 0.60 0.59 0.58
1.05 1.02 0.97 0.87 0.87 0.89 0.84 0.82 0.82 0.85 0.88 0.95 1.00 1.03 1.04 1.04 1.03 1.12 1.12 1.18 1.19 1.15 1.10 1.04 0.95 0.87 0.79 0.74 0.66 0.58 0.59 0.65 0.70 0.72 0.73 0.71 0.68 0.66 0.63 0.63 0.61 0.61 0.61
0.87 0.90 0.90 0.89 0.86 0.81 0.77 0.77 0.82 0.81 0.87 0.92 0.98 1.02 1.07 1.13 1.14 1.10 1.09 1.18 1.18 1.13 1.11 1.03 0.96 0.88 0.83 0.80 0.70 0.63 0.55 0.65 0.72 0.77 0.77 0.75 0.72 0.70 0.67 0.65 0.64 0.63 0.62
0.71 0.79 0.83 0.87 0.87 0.83 0.85 0.85 0.86 0.91 0.86 0.81 0.88 0.94 1.04 1.08 1.11 1.13 1.16 1.19 1.17 1.16 1.11 1.09 1.05 0.98 0.89 0.91 0.87 0.74 0.62 0.58 0.67 0.76 0.78 0.78 0.75 0.72 0.69 0.65 0.62 0.61 0.61
0.65 0.71 0.76 0.83 0.84 0.86 0.88 0.84 0.79 0.75 0.72 0.75 0.78 0.88 0.97 1.10 1.12 1.14 1.13 1.18 1.14 1.16 1.14 1.14 1.13 1.10 1.06 0.94 0.93 0.90 0.83 0.78 0.67 0.65 0.76 0.78 0.79 0.71 0.68 0.66 0.65 0.64 0.64
0.73 0.73 0.77 0.83 0.92 0.99 0.95 0.91 0.90 0.88 0.83 0.88 0.93 0.96 1.08 1.20 1.21 1.23 1.18 1.21 1.21 1.18 1.19 1.19 1.17 1.12 1.09 1.02 0.94 0.93 0.88 0.83 0.79 0.73 0.69 0.71 0.71 0.70 0.70 0.69 0.67 0.63 0.61
0.79 0.79 0.84 0.85 0.88 1.01 1.04 1.03 1.04 1.01 0.96 0.87 0.97 1.02 1.08 1.18 1.29 1.30 1.23 1.25 1.29 1.26 1.23 1.21 1.23 1.15 1.12 1.08 1.03 0.98 0.90 0.81 0.77 0.76 0.73 0.72 0.69 0.68 0.67 0.66 0.64 0.61 0.60